Weather History for KPBF - March, 2013

Change the Weather History Date:

Friday, March 8, 2013

  Actual Average Record
Temperature  
Mean Temperature 48 °F 52 °F  
Max Temperature 63 °F 62 °F 85 °F (1974)
Min Temperature 33 °F 42 °F 19 °F (2008)
Degree Days  
Heating Degree Days 17 13  
Month to date heating degree days 168 115  
Since 1 July heating degree days 2379 2503  
Cooling Degree Days 0 0  
Month to date cooling degree days 0 0  
Year to date cooling degree days 5 3  
Moisture  
Dew Point 36 °F    
Average Humidity 61    
Maximum Humidity 85    
Minimum Humidity 36    
Precipitation  
Precipitation T in 0.18 in 3.17 in (1976)
Month to date precipitation 0.02 1.45  
Year to date precipitation 11.33 9.27  
Snow  
Snow 0.00 in 0.00 in 1.00 in (1932)
Month to date snowfall 0.0 0.0  
Since 1 July snowfall 2.1 3.1  
Snow Depth 0.00 in    
Sea Level Pressure  
Sea Level Pressure 30.26 in    
Wind  
Wind Speed 5 mph (East)    
Max Wind Speed 13 mph    
Max Gust Speed 17 mph    
Visibility 10 miles    
Events Rain    
T = Trace of Precipitation, MM = Missing Value Source: NWS Daily Summary

Daily Weather History Graph

Daily Weather History Graph

Search for Another Location

Airport or City:

Trip Planner

Search our weather history database for the weather conditions in past years. The results will help you decide how hot, cold, wet, or windy it might be!

Date:

Astronomy

Mar. 08, 2013 Rise Set
Actual Time 6:27 AM CST 6:10 PM CST
Civil Twilight 6:02 AM CST 6:35 PM CST
Nautical Twilight 5:33 AM CST 7:04 PM CST
Astronomical Twilight 5:04 AM CST 7:33 PM CST
Moon 4:04 AM CST (3/8) 3:11 PM CST (3/8)
Length of Visible Light 12h 32m
Length of Day
11h 42m
Waning Crescent, 11% of the Moon is Illuminated
Mar 8
Waning Crescent
Mar 11
New
Mar 19
First Quarter
Mar 27
Full
Apr 2
Last Quarter

Hourly Weather History & Observations

Time (CST) Temp. Windchill Dew Point Humidity Pressure Visibility Wind Dir Wind Speed Gust Speed Precip Events Conditions
12:53 AM 39.0 °F - 33.1 °F 79% 30.29 in 10.0 mi Calm Calm - N/A   Clear
1:53 AM 37.9 °F - 33.1 °F 83% 30.29 in 10.0 mi Calm Calm - N/A   Clear
2:53 AM 37.9 °F - 32.0 °F 79% 30.27 in 10.0 mi Calm Calm - N/A   Clear
3:53 AM 37.9 °F - 32.0 °F 79% 30.28 in 10.0 mi Calm Calm - N/A   Clear
4:53 AM 39.0 °F - 32.0 °F 76% 30.30 in 10.0 mi Calm Calm - N/A   Clear
5:53 AM 35.1 °F - 30.9 °F 85% 30.32 in 10.0 mi Calm Calm - N/A   Clear
6:53 AM 35.1 °F 27.9 °F 30.9 °F 85% 30.34 in 10.0 mi NE 9.2 mph - N/A   Clear
7:53 AM 42.1 °F 36.6 °F 35.1 °F 76% 30.34 in 10.0 mi East 9.2 mph - N/A   Clear
8:53 AM 48.0 °F - 35.1 °F 61% 30.36 in 10.0 mi ESE 9.2 mph - N/A   Clear
9:53 AM 52.0 °F - 35.1 °F 53% 30.35 in 10.0 mi ESE 8.1 mph - N/A   Clear
10:53 AM 55.9 °F - 36.0 °F 47% 30.35 in 10.0 mi ESE 6.9 mph - N/A   Clear
11:53 AM 59.0 °F - 36.0 °F 42% 30.31 in 10.0 mi ESE 9.2 mph - N/A   Clear
12:53 PM 61.0 °F - 36.0 °F 39% 30.30 in 10.0 mi East 9.2 mph - N/A   Clear
1:53 PM 62.1 °F - 35.1 °F 37% 30.27 in 10.0 mi ENE 9.2 mph - N/A   Clear
2:53 PM 61.0 °F - 34.0 °F 36% 30.23 in 10.0 mi East 9.2 mph - N/A   Clear
3:53 PM 60.1 °F - 36.0 °F 41% 30.22 in 10.0 mi East 12.7 mph - N/A   Clear
4:53 PM 60.1 °F - 36.0 °F 41% 30.19 in 10.0 mi ESE 9.2 mph - N/A   Clear
5:53 PM 55.9 °F - 39.0 °F 53% 30.19 in 10.0 mi East 8.1 mph - N/A   Clear
6:53 PM 54.0 °F - 39.9 °F 59% 30.20 in 10.0 mi ESE 3.5 mph - N/A   Clear
7:53 PM 51.1 °F - 43.0 °F 74% 30.21 in 10.0 mi East 5.8 mph - N/A   Clear
8:53 PM 52.0 °F - 42.1 °F 69% 30.20 in 10.0 mi Calm Calm - N/A   Mostly Cloudy
9:53 PM 52.0 °F - 41.0 °F 66% 30.20 in 10.0 mi Calm Calm - N/A   Overcast
10:53 PM 51.1 °F - 43.0 °F 74% 30.17 in 10.0 mi Calm Calm - 0.00 in   Overcast
11:53 PM 51.1 °F - 42.1 °F 71% 30.13 in 10.0 mi East 8.1 mph - 0.00 in Rain Light Rain